FW2567 Weather Reports


Display with metric or nautical units.
time (UTC)temp
F
wind
direction
speed
MPH
gust
MPH
rain 1hr
in
rain 24hr
in
rain mn
in
humidity
%
barometer
mb
20260508191529 65 273 8.0 21.0 0.00 0.00 0.00 37 1020.7
20260508190104 64 286 9.0 20.0 0.00 0.00 0.00 36 1020.6
20260508184529 64 284 9.0 20.0 0.00 0.00 0.00 37 1020.6
20260508183030 63 286 6.0 18.0 0.00 0.00 0.00 49 1020.6
20260508181606 59 69 1.0 4.0 0.00 0.00 0.00 63 1020.5
20260508180030 56 213 0.0 3.0 0.00 0.00 0.00 66 1020.6
20260508174529 56 226 1.0 3.0 0.00 0.00 0.00 66 1020.6
20260508173030 56 271 1.0 5.0 0.00 0.00 0.00 65 1020.3
20260508170030 55 65 2.0 4.0 0.00 0.00 0.00 64 1020.1
20260508164530 54 47 3.0 7.0 0.00 0.00 0.00 64 1019.9
20260508161605 56 19 8.0 16.0 0.00 0.00 0.00 62 1020.0
20260508160105 57 8 7.0 17.0 0.00 0.00 0.00 60 1020.0
20260508154603 57 344 7.0 14.0 0.00 0.00 0.00 60 1020.1
20260508153108 59 320 6.0 14.0 0.00 0.00 0.00 59 1020.0
20260508151644 58 336 4.0 17.0 0.00 0.00 0.00 61 1019.9
20260508150030 57 332 8.0 16.0 0.00 0.00 0.00 62 1019.7
20260508144530 55 1 4.0 11.0 0.00 0.00 0.00 62 1019.6
20260508143032 54 357 6.0 13.0 0.00 0.00 0.00 61 1019.3
20260508141527 54 351 5.0 13.0 0.00 0.00 0.00 61 1019.2
20260508140032 54 342 6.0 13.0 0.00 0.00 0.00 63 1019.1
20260508134530 53 316 5.0 11.0 0.00 0.00 0.00 65 1019.0
20260508133030 53 321 3.0 15.0 0.00 0.00 0.00 67 1018.9
20260508131531 52 343 5.0 11.0 0.00 0.00 0.00 71 1018.7
20260508130032 50 341 5.0 13.0 0.00 0.00 0.00 76 1018.6
20260508124532 45 349 6.0 13.0 0.00 0.00 0.00 82 1018.4
20260508123032 41 322 2.0 8.0 0.00 0.00 0.00 81 1018.3
20260508121530 41 136 0.0 3.0 0.00 0.00 0.00 79 1018.2
20260508120032 41 179 1.0 3.0 0.00 0.00 0.00 77 1018.1
20260508114531 42 157 0.0 4.0 0.00 0.00 0.00 75 1018.1
20260508113146 42 187 1.0 6.0 0.00 0.00 0.00 75 1018.0
20260508111605 42 143 1.0 5.0 0.00 0.00 0.00 75 1017.9
20260508104530 41 131 1.0 5.0 0.00 0.00 0.00 76 1017.8
20260508103107 40 125 0.0 4.0 0.00 0.00 0.00 78 1017.8
20260508101534 39 149 1.0 5.0 0.00 0.00 0.00 79 1017.8
20260508100032 39 109 0.0 5.0 0.00 0.00 0.00 78 1017.8
20260508094532 39 123 0.0 6.0 0.00 0.00 0.00 75 1017.8
20260508091530 41 153 1.0 5.0 0.00 0.00 0.00 73 1017.8
20260508090030 41 150 2.0 4.0 0.00 0.00 0.00 70 1017.8
20260508083031 44 152 4.0 8.0 0.00 0.00 0.00 68 1017.8
20260508081530 43 148 4.0 7.0 0.00 0.00 0.00 69 1017.9
20260508074532 42 71 1.0 4.0 0.00 0.00 0.00 70 1017.9
20260508073032 42 151 2.0 4.0 0.00 0.00 0.00 68 1018.0
20260508071605 44 121 1.0 4.0 0.00 0.00 0.00 66 1018.0
20260508070030 44 146 4.0 7.0 0.00 0.00 0.00 65 1018.0
20260508064531 45 163 2.0 5.0 0.00 0.00 0.00 64 1018.1
20260508060029 45 185 1.0 5.0 0.00 0.00 0.00 62 1018.3
20260508054532 46 158 2.0 6.0 0.00 0.00 0.00 59 1018.2
20260508051529 49 356 1.0 4.0 0.00 0.00 0.00 52 1018.3
20260508050146 50 44 0.0 4.0 0.00 0.00 0.00 49 1018.3
20260508044532 51 347 1.0 4.0 0.00 0.00 0.00 47 1018.3
20260508043030 51 348 1.0 5.0 0.00 0.00 0.00 47 1018.2
20260508040031 52 95 1.0 5.0 0.00 0.00 0.00 44 1017.9
20260508034605 55 15 1.0 7.0 0.00 0.00 0.00 39 1017.7
20260508033104 58 242 1.0 4.0 0.00 0.00 0.00 36 1017.6
20260508031531 60 326 3.0 8.0 0.00 0.00 0.00 35 1017.4
20260508030031 61 320 4.0 10.0 0.00 0.00 0.00 35 1017.5
20260508024530 63 336 4.0 13.0 0.00 0.00 0.00 34 1017.4
20260508023107 64 311 4.0 10.0 0.00 0.00 0.00 34 1017.3
20260508021529 65 329 6.0 12.0 0.00 0.00 0.00 34 1017.1
20260508020029 67 308 5.0 13.0 0.00 0.00 0.00 34 1017.1
20260508014530 68 297 6.0 12.0 0.00 0.00 0.00 33 1017.1
20260508013030 69 287 4.0 11.0 0.00 0.00 0.00 32 1017.1
20260508011607 70 301 6.0 12.0 0.00 0.00 0.00 30 1017.2
20260508010032 71 301 7.0 13.0 0.00 0.00 0.00 28 1017.2
20260508004603 72 294 7.0 14.0 0.00 0.00 0.00 27 1017.1
20260508003029 72 292 5.0 15.0 0.00 0.00 0.00 27 1017.1
20260508001531 73 283 7.0 14.0 0.00 0.00 0.00 26 1017.1
20260507234533 73 299 8.0 20.0 0.00 0.00 0.00 25 1017.0
20260507233031 74 310 7.0 17.0 0.00 0.00 0.00 25 1017.1
20260507231529 74 303 8.0 20.0 0.00 0.00 0.00 25 1017.2
20260507230029 74 295 6.0 14.0 0.00 0.00 0.00 25 1017.3
20260507224607 74 297 7.0 12.0 0.00 0.00 0.00 25 1017.4
20260507223030 74 278 6.0 14.0 0.00 0.00 0.00 27 1017.5
20260507221529 73 301 5.0 11.0 0.00 0.00 0.00 28 1017.7
20260507214530 71 330 4.0 12.0 0.00 0.00 0.00 29 1018.1
20260507213030 70 318 7.0 16.0 0.00 0.00 0.00 30 1018.1
20260507211607 70 328 7.0 16.0 0.00 0.00 0.00 32 1018.1
20260507210107 69 329 6.0 18.0 0.00 0.00 0.00 32 1018.1
20260507203031 70 317 7.0 18.0 0.00 0.00 0.00 33 1018.4
20260507201607 70 306 7.0 18.0 0.00 0.00 0.00 31 1018.6